SVR2008 UZTT-USSS

Flight info

Callsign SVR2008
Flight time 2h 33m
Altitude 36000
Route MIKNO M168 ALZIS L145 LANOR N993 BUREM DCT LERTU R482 PESAM
Aircraft A20N/M-VGDW/C

Departure

Time 2026-05-05 04:32
Airport Tashkent International Airport (UZTT)

Arrival

Time 2026-05-05 07:06
Airport Koltsovo Airport (USSS)
Time Latitude Longitude Altitude Speed Heading
2026-05-05 04:28 41.26183 69.30028 1423 ft 0 kts 140°
2026-05-05 04:30 41.26181 69.30031 1423 ft 2 kts 140°
2026-05-05 04:30 41.26158 69.30056 1423 ft 6 kts 140°
2026-05-05 04:31 41.26109 69.30091 1423 ft 9 kts 174°
2026-05-05 04:31 41.26057 69.30034 1423 ft 8 kts 261°
2026-05-05 04:31 41.26056 69.30026 1423 ft 0 kts 258°
2026-05-05 04:31 41.26029 69.29836 1423 ft 54 kts 261°
2026-05-05 04:32 41.25942 69.29022 1423 ft 119 kts 261°
2026-05-05 04:32 41.25793 69.27685 1427 ft 171 kts 262°
2026-05-05 04:32 41.25622 69.26105 1883 ft 176 kts 262°
2026-05-05 04:32 41.25446 69.24470 2452 ft 182 kts 262°
2026-05-05 04:33 41.25266 69.22818 3070 ft 184 kts 261°
2026-05-05 04:33 41.25080 69.21127 3513 ft 194 kts 261°
2026-05-05 04:33 41.24874 69.19274 3866 ft 211 kts 261°
2026-05-05 04:33 41.24652 69.17280 4204 ft 229 kts 261°
2026-05-05 04:34 41.24406 69.15069 4524 ft 252 kts 261°
2026-05-05 04:34 41.24144 69.12701 4987 ft 268 kts 261°
2026-05-05 04:34 41.23869 69.10232 5710 ft 274 kts 261°
2026-05-05 04:34 41.23634 69.07736 6556 ft 275 kts 269°
2026-05-05 04:35 41.24063 69.05290 7339 ft 280 kts 297°
2026-05-05 04:35 41.25324 69.03357 8127 ft 285 kts 324°
2026-05-05 04:35 41.27095 69.02143 8906 ft 290 kts 332°
2026-05-05 04:35 41.28777 69.00691 9627 ft 292 kts 317°
2026-05-05 04:36 41.30285 68.98878 10382 ft 295 kts 315°
2026-05-05 04:36 41.31828 68.96995 10858 ft 310 kts 316°
2026-05-05 04:36 41.33494 68.95053 11209 ft 328 kts 317°
2026-05-05 04:36 41.35282 68.93062 11592 ft 344 kts 321°
2026-05-05 04:37 41.37416 68.91562 12181 ft 354 kts 344°
2026-05-05 04:37 41.39839 68.91023 12970 ft 356 kts 352°
2026-05-05 04:37 41.42270 68.90703 13701 ft 358 kts 353°
2026-05-05 04:37 41.44763 68.90371 14405 ft 361 kts 352°
2026-05-05 04:38 41.47285 68.89994 15108 ft 363 kts 352°
2026-05-05 04:38 41.49795 68.89584 15786 ft 366 kts 351°
2026-05-05 04:38 41.52321 68.89147 16443 ft 369 kts 351°
2026-05-05 04:38 41.54863 68.88695 17092 ft 372 kts 351°
2026-05-05 04:39 41.57478 68.88219 17730 ft 374 kts 351°
2026-05-05 04:39 41.60061 68.87743 18337 ft 378 kts 351°
2026-05-05 04:39 41.62662 68.87258 18935 ft 381 kts 351°
2026-05-05 04:39 41.65288 68.86768 19538 ft 383 kts 351°
2026-05-05 04:40 41.67922 68.86274 20145 ft 385 kts 351°
2026-05-05 04:40 41.70626 68.85765 20733 ft 388 kts 351°
2026-05-05 04:40 41.73268 68.85267 21281 ft 390 kts 351°
2026-05-05 04:40 41.75979 68.84757 21839 ft 393 kts 351°
2026-05-05 04:41 41.78693 68.84244 22374 ft 395 kts 351°
2026-05-05 04:41 41.81422 68.83729 22905 ft 398 kts 351°
2026-05-05 04:41 41.84158 68.83212 23430 ft 400 kts 351°
2026-05-05 04:41 41.86916 68.82691 23946 ft 402 kts 351°
2026-05-05 04:42 41.89696 68.82166 24425 ft 405 kts 351°
2026-05-05 04:42 41.92484 68.81638 24880 ft 408 kts 351°
2026-05-05 04:42 41.95469 68.81072 25347 ft 411 kts 351°
2026-05-05 04:42 41.98435 68.80509 25802 ft 414 kts 351°
2026-05-05 04:43 42.01286 68.79966 26221 ft 416 kts 351°
2026-05-05 04:43 42.04185 68.79415 26623 ft 419 kts 351°
2026-05-05 04:43 42.07074 68.78863 26989 ft 422 kts 351°
2026-05-05 04:43 42.09987 68.78308 27371 ft 424 kts 351°
2026-05-05 04:44 42.12912 68.77749 27746 ft 426 kts 351°
2026-05-05 04:44 42.15860 68.77186 28113 ft 428 kts 351°
2026-05-05 04:44 42.18800 68.76624 28581 ft 428 kts 351°
2026-05-05 04:44 42.21721 68.76066 29097 ft 426 kts 351°
2026-05-05 04:45 42.24637 68.75507 29582 ft 425 kts 351°
2026-05-05 04:45 42.27552 68.74950 30056 ft 423 kts 351°
2026-05-05 04:45 42.30456 68.74392 30501 ft 422 kts 351°
2026-05-05 04:45 42.33356 68.73835 30926 ft 422 kts 351°
2026-05-05 04:46 42.36243 68.73280 31352 ft 421 kts 351°
2026-05-05 04:46 42.39167 68.72716 31762 ft 420 kts 351°
2026-05-05 04:46 42.42046 68.72163 32145 ft 420 kts 351°
2026-05-05 04:46 42.44913 68.71609 32530 ft 419 kts 351°
2026-05-05 04:47 42.47780 68.71056 32916 ft 418 kts 351°
2026-05-05 04:47 42.50678 68.70496 33291 ft 417 kts 351°
2026-05-05 04:47 42.53537 68.69943 33622 ft 416 kts 351°
2026-05-05 04:47 42.56401 68.69389 33943 ft 416 kts 351°
2026-05-05 04:48 42.59251 68.68837 34250 ft 416 kts 351°
2026-05-05 04:48 42.62105 68.68285 34470 ft 416 kts 351°
2026-05-05 04:48 42.64968 68.67729 34666 ft 417 kts 351°
2026-05-05 04:48 42.67835 68.67173 34863 ft 418 kts 351°
2026-05-05 04:49 42.70714 68.66613 35058 ft 418 kts 351°
2026-05-05 04:49 42.73569 68.66058 35230 ft 419 kts 351°
2026-05-05 04:49 42.76463 68.65494 35407 ft 420 kts 351°
2026-05-05 04:49 42.79356 68.64930 35592 ft 420 kts 351°
2026-05-05 04:50 42.82258 68.64363 35763 ft 420 kts 351°
2026-05-05 04:50 42.85133 68.63802 35924 ft 421 kts 351°
2026-05-05 04:50 42.88038 68.63233 36005 ft 422 kts 350°
2026-05-05 04:51 42.93818 68.62101 36020 ft 422 kts 350°
2026-05-05 04:51 42.99642 68.60958 36021 ft 423 kts 350°
2026-05-05 04:52 43.05458 68.59815 36015 ft 423 kts 350°
2026-05-05 04:52 43.11255 68.58672 36023 ft 423 kts 350°
2026-05-05 04:53 43.17074 68.57524 36028 ft 423 kts 350°
2026-05-05 04:53 43.22923 68.56368 36032 ft 424 kts 350°
2026-05-05 04:54 43.28754 68.55213 36031 ft 424 kts 350°
2026-05-05 04:54 43.34592 68.54054 36028 ft 424 kts 350°
2026-05-05 04:55 43.40397 68.52901 36033 ft 424 kts 350°
2026-05-05 04:55 43.46247 68.51736 36036 ft 425 kts 350°
2026-05-05 04:56 43.52067 68.50574 36046 ft 425 kts 350°
2026-05-05 04:56 43.57937 68.49399 36054 ft 426 kts 350°
2026-05-05 04:57 43.63771 68.48229 36068 ft 426 kts 350°
2026-05-05 04:57 43.69645 68.47049 36086 ft 426 kts 350°
2026-05-05 04:58 43.75472 68.45878 36101 ft 425 kts 350°
2026-05-05 04:58 43.81338 68.44696 36105 ft 426 kts 350°
2026-05-05 04:59 43.87179 68.43516 36097 ft 426 kts 350°
2026-05-05 04:59 43.93068 68.42324 36095 ft 428 kts 350°
2026-05-05 05:00 43.98915 68.41137 36082 ft 428 kts 350°
2026-05-05 05:00 44.04801 68.39940 36079 ft 427 kts 351°
2026-05-05 05:01 44.10688 68.38742 36071 ft 428 kts 350°
2026-05-05 05:01 44.16561 68.37545 36068 ft 428 kts 350°
2026-05-05 05:02 44.22453 68.36341 36058 ft 428 kts 350°
2026-05-05 05:02 44.28345 68.35133 36055 ft 430 kts 350°
2026-05-05 05:03 44.34250 68.33922 36046 ft 430 kts 349°
2026-05-05 05:03 44.40161 68.32705 36049 ft 430 kts 349°
2026-05-05 05:04 44.46065 68.31486 36041 ft 430 kts 349°
2026-05-05 05:04 44.51950 68.30272 36039 ft 430 kts 349°
2026-05-05 05:05 44.57858 68.29049 36034 ft 431 kts 349°
2026-05-05 05:05 44.63772 68.27823 36035 ft 431 kts 349°
2026-05-05 05:06 44.69714 68.26589 36034 ft 431 kts 349°
2026-05-05 05:06 44.75635 68.25357 36033 ft 432 kts 349°
2026-05-05 05:07 44.81593 68.24113 36033 ft 433 kts 349°
2026-05-05 05:07 44.87512 68.22873 36033 ft 433 kts 349°
2026-05-05 05:08 44.93471 68.21625 36033 ft 432 kts 349°
2026-05-05 05:08 44.99406 68.20378 36032 ft 432 kts 349°
2026-05-05 05:09 45.05356 68.19127 36032 ft 433 kts 349°
2026-05-05 05:09 45.11326 68.17868 36034 ft 434 kts 349°
2026-05-05 05:10 45.17308 68.16605 36033 ft 434 kts 349°
2026-05-05 05:10 45.23266 68.15346 36031 ft 433 kts 349°
2026-05-05 05:11 45.29195 68.14084 36036 ft 434 kts 349°
2026-05-05 05:11 45.35148 68.12817 36038 ft 434 kts 349°
2026-05-05 05:12 45.41124 68.11544 36037 ft 435 kts 349°
2026-05-05 05:12 45.47099 68.10268 36041 ft 436 kts 349°
2026-05-05 05:13 45.53099 68.08984 36045 ft 436 kts 349°
2026-05-05 05:13 45.59081 68.07701 36043 ft 436 kts 349°
2026-05-05 05:14 45.65067 68.06415 36047 ft 436 kts 349°
2026-05-05 05:14 45.71035 68.05128 36042 ft 436 kts 349°
2026-05-05 05:15 45.77021 68.03835 36040 ft 436 kts 349°
2026-05-05 05:15 45.83018 68.02537 36044 ft 436 kts 349°
2026-05-05 05:16 45.89019 68.01234 36041 ft 437 kts 349°
2026-05-05 05:16 45.94998 67.99934 36041 ft 437 kts 349°
2026-05-05 05:17 46.01060 67.98907 36044 ft 438 kts 352°
2026-05-05 05:17 46.07100 67.98040 36046 ft 438 kts 352°
2026-05-05 05:18 46.13135 67.97166 36048 ft 438 kts 352°
2026-05-05 05:18 46.19185 67.96280 36051 ft 439 kts 352°
2026-05-05 05:19 46.25266 67.95386 36051 ft 439 kts 352°
2026-05-05 05:19 46.31317 67.94494 36051 ft 439 kts 352°
2026-05-05 05:20 46.37395 67.93594 36057 ft 439 kts 352°
2026-05-05 05:20 46.43448 67.92696 36059 ft 439 kts 352°
2026-05-05 05:21 46.49501 67.91796 36063 ft 440 kts 352°
2026-05-05 05:21 46.55591 67.90910 36065 ft 440 kts 353°
2026-05-05 05:22 46.61677 67.90299 36063 ft 440 kts 354°
2026-05-05 05:22 46.67764 67.89720 36069 ft 441 kts 354°
2026-05-05 05:23 46.73875 67.89119 36073 ft 441 kts 354°
2026-05-05 05:23 46.79980 67.88505 36073 ft 441 kts 354°
2026-05-05 05:24 46.86096 67.87888 36076 ft 441 kts 354°
2026-05-05 05:24 46.92179 67.87271 36082 ft 441 kts 354°
2026-05-05 05:25 46.98326 67.86648 36083 ft 441 kts 353°
2026-05-05 05:25 47.04406 67.85921 36083 ft 441 kts 352°
2026-05-05 05:26 47.10510 67.85031 36081 ft 441 kts 352°
2026-05-05 05:26 47.16609 67.84148 36086 ft 441 kts 352°
2026-05-05 05:27 47.22682 67.83279 36086 ft 441 kts 352°
2026-05-05 05:27 47.31827 67.81976 36086 ft 442 kts 352°
2026-05-05 05:28 47.37951 67.81099 36091 ft 441 kts 352°
2026-05-05 05:28 47.44035 67.80226 36087 ft 441 kts 352°
2026-05-05 05:29 47.50108 67.79353 36088 ft 441 kts 352°
2026-05-05 05:29 47.56195 67.78474 36090 ft 441 kts 352°
2026-05-05 05:30 47.62284 67.77595 36087 ft 441 kts 352°
2026-05-05 05:30 47.68346 67.76402 36093 ft 439 kts 346°
2026-05-05 05:31 47.74234 67.74187 36095 ft 437 kts 339°
2026-05-05 05:31 47.79880 67.70944 36099 ft 434 kts 333°
2026-05-05 05:32 47.85361 67.67194 36094 ft 434 kts 332°
2026-05-05 05:32 47.90820 67.63428 36096 ft 433 kts 332°
2026-05-05 05:33 47.96284 67.59665 36095 ft 434 kts 332°
2026-05-05 05:33 48.01741 67.55904 36094 ft 434 kts 332°
2026-05-05 05:34 48.07208 67.52129 36091 ft 434 kts 332°
2026-05-05 05:34 48.12660 67.48358 36095 ft 434 kts 332°
2026-05-05 05:35 48.18151 67.44551 36099 ft 434 kts 332°
2026-05-05 05:35 48.23588 67.40771 36094 ft 434 kts 332°
2026-05-05 05:36 48.29065 67.36955 36091 ft 434 kts 332°
2026-05-05 05:36 48.34515 67.33147 36089 ft 433 kts 331°
2026-05-05 05:37 48.39925 67.29299 36092 ft 433 kts 330°
2026-05-05 05:37 48.45321 67.25281 36091 ft 433 kts 330°
2026-05-05 05:38 48.49804 67.21931 36092 ft 433 kts 330°
2026-05-05 05:38 48.56090 67.17237 36093 ft 433 kts 330°
2026-05-05 05:39 48.61462 67.13219 36090 ft 433 kts 330°
2026-05-05 05:39 48.66820 67.09203 36098 ft 432 kts 330°
2026-05-05 05:40 48.72179 67.05177 36088 ft 432 kts 330°
2026-05-05 05:40 48.77565 67.01120 36089 ft 432 kts 330°
2026-05-05 05:41 48.82933 66.97066 36086 ft 432 kts 330°
2026-05-05 05:41 48.88276 66.93021 36072 ft 432 kts 330°
2026-05-05 05:42 48.93667 66.88953 36073 ft 433 kts 332°
2026-05-05 05:42 48.99119 66.85204 36062 ft 433 kts 333°
2026-05-05 05:43 49.04620 66.81472 36066 ft 433 kts 333°
2026-05-05 05:43 49.10103 66.77736 36052 ft 433 kts 333°
2026-05-05 05:44 49.15573 66.73991 36053 ft 432 kts 333°
2026-05-05 05:44 49.21046 66.70235 36046 ft 432 kts 333°
2026-05-05 05:45 49.26492 66.66486 36046 ft 432 kts 333°
2026-05-05 05:45 49.31953 66.62717 36039 ft 432 kts 333°
2026-05-05 05:46 49.37421 66.58937 36037 ft 432 kts 333°
2026-05-05 05:46 49.42910 66.55132 36032 ft 432 kts 333°
2026-05-05 05:47 49.48336 66.51361 36031 ft 432 kts 333°
2026-05-05 05:47 49.53812 66.47546 36036 ft 431 kts 333°
2026-05-05 05:48 49.59254 66.43744 36030 ft 431 kts 333°
2026-05-05 05:48 49.64693 66.39934 36024 ft 431 kts 333°
2026-05-05 05:49 49.70115 66.36125 36016 ft 431 kts 333°
2026-05-05 05:49 49.75531 66.32221 36016 ft 430 kts 330°
2026-05-05 05:50 49.80825 66.28066 36017 ft 430 kts 329°
2026-05-05 05:50 49.86145 66.23850 36011 ft 430 kts 329°
2026-05-05 05:51 49.91466 66.19632 36003 ft 430 kts 329°
2026-05-05 05:51 49.96744 66.15444 36001 ft 430 kts 329°
2026-05-05 05:52 50.02085 66.11198 35996 ft 429 kts 329°
2026-05-05 05:52 50.07358 66.06991 35999 ft 429 kts 329°
2026-05-05 05:53 50.12641 66.02764 35991 ft 429 kts 329°
2026-05-05 05:53 50.17990 65.98592 35985 ft 429 kts 331°
2026-05-05 05:54 50.23351 65.94614 35989 ft 430 kts 331°
2026-05-05 05:54 50.28742 65.90583 35984 ft 430 kts 331°
2026-05-05 05:55 50.34097 65.86552 35984 ft 430 kts 331°
2026-05-05 05:55 50.39470 65.82503 35977 ft 429 kts 331°
2026-05-05 05:56 50.44840 65.78453 35979 ft 428 kts 331°
2026-05-05 05:56 50.50194 65.74400 35974 ft 428 kts 331°
2026-05-05 05:57 50.55529 65.70351 35971 ft 428 kts 330°
2026-05-05 05:57 50.60863 65.66290 35974 ft 429 kts 331°
2026-05-05 05:58 50.66213 65.62206 35976 ft 429 kts 331°
2026-05-05 05:58 50.71569 65.58109 35970 ft 428 kts 331°
2026-05-05 05:59 50.76897 65.54022 35969 ft 428 kts 330°
2026-05-05 05:59 50.82267 65.49892 35964 ft 428 kts 330°
2026-05-05 06:00 50.87578 65.45799 35966 ft 428 kts 330°
2026-05-05 06:00 50.92912 65.41679 35961 ft 427 kts 330°
2026-05-05 06:01 50.98242 65.37549 35960 ft 427 kts 330°
2026-05-05 06:01 51.03568 65.33410 35960 ft 427 kts 329°
2026-05-05 06:02 51.08895 65.29258 35956 ft 427 kts 329°
2026-05-05 06:02 51.14199 65.25118 35957 ft 427 kts 329°
2026-05-05 06:03 51.19532 65.20944 35960 ft 427 kts 329°
2026-05-05 06:03 51.24818 65.16796 35962 ft 427 kts 329°
2026-05-05 06:04 51.30128 65.12616 35963 ft 426 kts 329°
2026-05-05 06:04 51.35442 65.08423 35960 ft 426 kts 329°
2026-05-05 06:05 51.40726 65.04243 35961 ft 426 kts 329°
2026-05-05 06:05 51.45997 65.00063 35960 ft 426 kts 329°
2026-05-05 06:06 51.51318 64.95832 35955 ft 425 kts 328°
2026-05-05 06:06 51.56577 64.91637 35957 ft 425 kts 329°
2026-05-05 06:07 51.61877 64.87399 35952 ft 426 kts 328°
2026-05-05 06:07 51.67162 64.83162 35944 ft 426 kts 328°
2026-05-05 06:08 51.72460 64.78906 35940 ft 425 kts 328°
2026-05-05 06:08 51.77737 64.74693 35944 ft 425 kts 329°
2026-05-05 06:09 51.83020 64.70509 35944 ft 425 kts 329°
2026-05-05 06:09 51.88322 64.66288 35939 ft 425 kts 329°
2026-05-05 06:10 51.93601 64.62075 35937 ft 424 kts 328°
2026-05-05 06:10 51.98857 64.57864 35941 ft 424 kts 328°
2026-05-05 06:11 52.04153 64.53612 35944 ft 425 kts 328°
2026-05-05 06:11 52.09427 64.49366 35940 ft 425 kts 328°
2026-05-05 06:12 52.14713 64.45099 35938 ft 425 kts 328°
2026-05-05 06:12 52.19978 64.40836 35935 ft 425 kts 328°
2026-05-05 06:13 52.25269 64.36539 35936 ft 426 kts 328°
2026-05-05 06:13 52.30506 64.32162 35935 ft 424 kts 326°
2026-05-05 06:14 52.35773 64.27718 35935 ft 425 kts 326°
2026-05-05 06:14 52.41013 64.23292 35937 ft 426 kts 326°
2026-05-05 06:15 52.46256 64.18851 35939 ft 425 kts 326°
2026-05-05 06:15 52.51480 64.14417 35933 ft 425 kts 326°
2026-05-05 06:16 52.56701 64.09974 35931 ft 426 kts 326°
2026-05-05 06:16 52.61937 64.05508 35923 ft 426 kts 326°
2026-05-05 06:17 52.67163 64.01036 35918 ft 426 kts 326°
2026-05-05 06:17 52.72433 63.96516 35914 ft 426 kts 326°
2026-05-05 06:18 52.77664 63.92015 35912 ft 427 kts 326°
2026-05-05 06:18 52.82911 63.87489 35914 ft 426 kts 326°
2026-05-05 06:19 52.88132 63.82970 35912 ft 426 kts 326°
2026-05-05 06:19 52.93380 63.78421 35914 ft 426 kts 326°
2026-05-05 06:20 52.98596 63.73882 35908 ft 426 kts 326°
2026-05-05 06:20 53.03822 63.69322 35901 ft 426 kts 326°
2026-05-05 06:21 53.09058 63.64743 35903 ft 427 kts 326°
2026-05-05 06:21 53.14279 63.60163 35906 ft 427 kts 326°
2026-05-05 06:22 53.19527 63.55529 35907 ft 427 kts 324°
2026-05-05 06:22 53.24655 63.50664 35900 ft 426 kts 323°
2026-05-05 06:23 53.29778 63.45732 35902 ft 427 kts 323°
2026-05-05 06:23 53.34909 63.40796 35894 ft 426 kts 324°
2026-05-05 06:24 53.40020 63.35878 35907 ft 426 kts 323°
2026-05-05 06:24 53.45121 63.30958 35909 ft 425 kts 323°
2026-05-05 06:25 53.50236 63.26009 35899 ft 425 kts 323°
2026-05-05 06:25 53.55323 63.21077 35912 ft 425 kts 323°
2026-05-05 06:26 53.60422 63.16118 35917 ft 426 kts 323°
2026-05-05 06:26 53.65558 63.11111 35916 ft 426 kts 323°
2026-05-05 06:27 53.73222 63.03613 35914 ft 426 kts 323°
2026-05-05 06:28 53.78315 62.98611 35920 ft 426 kts 323°
2026-05-05 06:28 53.83423 62.93578 35920 ft 426 kts 323°
2026-05-05 06:29 53.88535 62.88531 35916 ft 426 kts 323°
2026-05-05 06:29 53.93646 62.83468 35918 ft 426 kts 323°
2026-05-05 06:30 53.98716 62.78430 35906 ft 426 kts 323°
2026-05-05 06:30 54.03836 62.73327 35923 ft 427 kts 323°
2026-05-05 06:31 54.08930 62.68235 35924 ft 428 kts 323°
2026-05-05 06:31 54.14120 62.63182 35919 ft 430 kts 325°
2026-05-05 06:32 54.19304 62.58194 35908 ft 429 kts 325°
2026-05-05 06:32 54.24492 62.53177 35916 ft 430 kts 325°
2026-05-05 06:33 54.29639 62.48172 35910 ft 429 kts 325°
2026-05-05 06:33 54.34811 62.43129 35912 ft 428 kts 325°
2026-05-05 06:34 54.39962 62.38090 35908 ft 429 kts 325°
2026-05-05 06:34 54.45150 62.32998 35917 ft 429 kts 324°
2026-05-05 06:35 54.50285 62.27947 35920 ft 429 kts 324°
2026-05-05 06:35 54.55441 62.22855 35915 ft 429 kts 324°
2026-05-05 06:36 54.60592 62.17756 35915 ft 429 kts 324°
2026-05-05 06:36 54.65781 62.12600 35482 ft 429 kts 325°
2026-05-05 06:36 54.68357 62.10110 35011 ft 429 kts 326°
2026-05-05 06:37 54.70996 62.07682 34440 ft 431 kts 327°
2026-05-05 06:37 54.73630 62.05277 33813 ft 434 kts 327°
2026-05-05 06:37 54.76309 62.02823 33126 ft 437 kts 327°
2026-05-05 06:37 54.78964 62.00377 32449 ft 439 kts 327°
2026-05-05 06:38 54.81661 61.97884 31756 ft 442 kts 327°
2026-05-05 06:38 54.84351 61.95385 31054 ft 444 kts 327°
2026-05-05 06:38 54.87055 61.92871 30338 ft 446 kts 327°
2026-05-05 06:38 54.89813 61.90308 29613 ft 448 kts 327°
2026-05-05 06:39 54.92519 61.87774 28892 ft 449 kts 328°
2026-05-05 06:39 54.95248 61.85222 28157 ft 450 kts 328°
2026-05-05 06:39 54.97992 61.82655 27472 ft 450 kts 329°
2026-05-05 06:39 55.00737 61.80089 26958 ft 444 kts 329°
2026-05-05 06:40 55.03425 61.77571 26455 ft 439 kts 329°
2026-05-05 06:40 55.06078 61.75080 25950 ft 434 kts 329°
2026-05-05 06:40 55.08703 61.72611 25450 ft 430 kts 330°
2026-05-05 06:40 55.11352 61.70113 24937 ft 425 kts 330°
2026-05-05 06:41 55.13900 61.67707 24449 ft 421 kts 330°
2026-05-05 06:41 55.16475 61.65274 23953 ft 417 kts 330°
2026-05-05 06:41 55.18988 61.62892 23456 ft 412 kts 331°
2026-05-05 06:41 55.21496 61.60514 22961 ft 407 kts 331°
2026-05-05 06:42 55.23947 61.58187 22480 ft 402 kts 331°
2026-05-05 06:42 55.26380 61.55873 22011 ft 398 kts 331°
2026-05-05 06:42 55.28804 61.53660 21550 ft 394 kts 335°
2026-05-05 06:42 55.31337 61.51908 21091 ft 390 kts 342°
2026-05-05 06:43 55.33915 61.50691 20553 ft 388 kts 348°
2026-05-05 06:43 55.36559 61.49776 20046 ft 384 kts 349°
2026-05-05 06:43 55.39171 61.48933 19622 ft 378 kts 350°
2026-05-05 06:43 55.41715 61.48119 19211 ft 372 kts 350°
2026-05-05 06:44 55.44221 61.47311 18768 ft 368 kts 350°
2026-05-05 06:44 55.46733 61.46495 18310 ft 364 kts 350°
2026-05-05 06:44 55.49190 61.45693 17866 ft 360 kts 350°
2026-05-05 06:44 55.51616 61.44897 17425 ft 357 kts 350°
2026-05-05 06:45 55.54040 61.44100 16972 ft 354 kts 350°
2026-05-05 06:45 55.56451 61.43307 16516 ft 351 kts 350°
2026-05-05 06:45 55.58856 61.42514 16063 ft 349 kts 350°
2026-05-05 06:45 55.61208 61.41738 15615 ft 346 kts 350°
2026-05-05 06:46 55.63569 61.40955 15176 ft 343 kts 351°
2026-05-05 06:46 55.65887 61.40186 14742 ft 340 kts 351°
2026-05-05 06:46 55.68209 61.39415 14309 ft 338 kts 351°
2026-05-05 06:46 55.70474 61.38663 13880 ft 335 kts 351°
2026-05-05 06:47 55.72758 61.37904 13455 ft 333 kts 351°
2026-05-05 06:47 55.75016 61.37154 13035 ft 330 kts 351°
2026-05-05 06:47 55.77266 61.36405 12609 ft 328 kts 351°
2026-05-05 06:47 55.79469 61.35670 12188 ft 325 kts 351°
2026-05-05 06:48 55.81694 61.34927 11765 ft 323 kts 350°
2026-05-05 06:48 55.83895 61.34190 11347 ft 321 kts 350°
2026-05-05 06:48 55.86072 61.33461 10921 ft 319 kts 350°
2026-05-05 06:48 55.88213 61.32744 10510 ft 316 kts 350°
2026-05-05 06:49 55.90340 61.32029 10323 ft 305 kts 350°
2026-05-05 06:49 55.92372 61.31325 10195 ft 292 kts 349°
2026-05-05 06:49 55.94331 61.30627 10066 ft 280 kts 349°
2026-05-05 06:49 55.96199 61.29958 9940 ft 269 kts 349°
2026-05-05 06:50 55.98007 61.29313 9791 ft 269 kts 350°
2026-05-05 06:50 55.99845 61.28658 9426 ft 269 kts 350°
2026-05-05 06:50 56.01656 61.28013 9080 ft 267 kts 349°
2026-05-05 06:50 56.03480 61.27363 8741 ft 265 kts 349°
2026-05-05 06:51 56.05286 61.26719 8408 ft 263 kts 349°
2026-05-05 06:51 56.07054 61.26087 8081 ft 261 kts 349°
2026-05-05 06:51 56.08830 61.25453 7850 ft 254 kts 349°
2026-05-05 06:51 56.10529 61.24843 7870 ft 249 kts 349°
2026-05-05 06:52 56.12215 61.24239 7879 ft 246 kts 349°
2026-05-05 06:52 56.13889 61.23637 7889 ft 245 kts 349°
2026-05-05 06:52 56.15538 61.23045 7892 ft 244 kts 349°
2026-05-05 06:52 56.17195 61.22449 7890 ft 243 kts 349°
2026-05-05 06:53 56.18848 61.21854 7892 ft 243 kts 349°
2026-05-05 06:53 56.20516 61.21253 7891 ft 243 kts 349°
2026-05-05 06:53 56.22176 61.20655 7891 ft 243 kts 349°
2026-05-05 06:53 56.23828 61.20059 7890 ft 243 kts 349°
2026-05-05 06:54 56.25487 61.19460 7890 ft 243 kts 349°
2026-05-05 06:54 56.27143 61.18861 7889 ft 243 kts 349°
2026-05-05 06:54 56.28799 61.18263 7886 ft 243 kts 349°
2026-05-05 06:54 56.30456 61.17663 7887 ft 244 kts 349°
2026-05-05 06:55 56.32097 61.17068 7885 ft 244 kts 349°
2026-05-05 06:55 56.33723 61.16478 7880 ft 232 kts 349°
2026-05-05 06:55 56.35284 61.15910 7886 ft 226 kts 349°
2026-05-05 06:55 56.36830 61.15467 7891 ft 229 kts 353°
2026-05-05 06:56 56.38432 61.15157 7893 ft 232 kts 354°
2026-05-05 06:56 56.40039 61.14859 7751 ft 234 kts 354°
2026-05-05 06:56 56.41635 61.14566 7458 ft 233 kts 354°
2026-05-05 06:56 56.43239 61.14270 7184 ft 231 kts 354°
2026-05-05 06:57 56.44826 61.13976 6931 ft 228 kts 354°
2026-05-05 06:57 56.46388 61.13685 6692 ft 225 kts 354°
2026-05-05 06:57 56.47934 61.13395 6445 ft 223 kts 354°
2026-05-05 06:57 56.49469 61.13108 6198 ft 221 kts 354°
2026-05-05 06:58 56.50985 61.12825 5963 ft 220 kts 354°
2026-05-05 06:58 56.52513 61.12541 5724 ft 219 kts 355°
2026-05-05 06:58 56.54022 61.12423 5467 ft 219 kts 359°
2026-05-05 06:58 56.55550 61.12425 5183 ft 218 kts 359°
2026-05-05 06:59 56.57041 61.12438 4924 ft 215 kts 359°
2026-05-05 06:59 56.58527 61.12451 4684 ft 211 kts 359°
2026-05-05 06:59 56.59974 61.12463 4490 ft 204 kts 359°
2026-05-05 06:59 56.61373 61.12472 4288 ft 198 kts 359°
2026-05-05 07:00 56.62745 61.12481 4127 ft 198 kts 359°
2026-05-05 07:00 56.64135 61.12483 3938 ft 199 kts 357°
2026-05-05 07:00 56.65511 61.12312 3802 ft 198 kts 354°
2026-05-05 07:00 56.66869 61.12079 3704 ft 198 kts 354°
2026-05-05 07:01 56.68242 61.11839 3585 ft 198 kts 353°
2026-05-05 07:01 56.69620 61.11600 3361 ft 200 kts 353°
2026-05-05 07:01 56.70994 61.11362 3055 ft 200 kts 353°
2026-05-05 07:01 56.72361 61.11063 2774 ft 198 kts 342°
2026-05-05 07:02 56.73482 61.09708 2591 ft 194 kts 303°
2026-05-05 07:02 56.73867 61.07400 2622 ft 199 kts 268°
2026-05-05 07:02 56.73638 61.04891 2669 ft 201 kts 260°
2026-05-05 07:02 56.73413 61.02414 2693 ft 200 kts 266°
2026-05-05 07:03 56.73363 60.99899 2667 ft 190 kts 273°
2026-05-05 07:03 56.73437 60.97610 2413 ft 176 kts 276°
2026-05-05 07:03 56.73536 60.95475 2159 ft 165 kts 277°
2026-05-05 07:03 56.73620 60.93486 1961 ft 149 kts 276°
2026-05-05 07:04 56.73688 60.91700 1757 ft 140 kts 276°
2026-05-05 07:04 56.73753 60.89921 1592 ft 139 kts 276°
2026-05-05 07:04 56.73821 60.88173 1420 ft 139 kts 276°
2026-05-05 07:04 56.73892 60.86431 1239 ft 139 kts 276°
2026-05-05 07:05 56.73959 60.84733 1051 ft 138 kts 276°
2026-05-05 07:05 56.74026 60.82985 876 ft 137 kts 276°
2026-05-05 07:05 56.74096 60.81289 778 ft 129 kts 276°
2026-05-05 07:05 56.74152 60.79919 776 ft 84 kts 274°
2026-05-05 07:06 56.74187 60.79076 776 ft 55 kts 276°
2026-05-05 07:06 56.74206 60.78423 776 ft 46 kts 272°
2026-05-05 07:06 56.74233 60.78050 776 ft 19 kts 307°
2026-05-05 07:06 56.74347 60.78059 776 ft 18 kts 21°
2026-05-05 07:07 56.74462 60.78142 776 ft 17 kts
2026-05-05 07:07 56.74585 60.78148 776 ft 17 kts 359°
2026-05-05 07:07 56.74705 60.78148 776 ft 17 kts
2026-05-05 07:07 56.74826 60.78147 776 ft 17 kts
2026-05-05 07:08 56.74858 60.78303 776 ft 14 kts 87°
2026-05-05 07:08 56.74860 60.78489 776 ft 15 kts 92°
2026-05-05 07:08 56.74857 60.78685 776 ft 15 kts 91°
2026-05-05 07:08 56.74857 60.78886 776 ft 16 kts 90°
2026-05-05 07:09 56.74856 60.79091 776 ft 16 kts 91°
2026-05-05 07:09 56.74852 60.79304 776 ft 16 kts 89°
2026-05-05 07:09 56.74852 60.79518 776 ft 17 kts 90°
2026-05-05 07:09 56.74852 60.79738 776 ft 14 kts 89°
2026-05-05 07:10 56.74887 60.79830 776 ft 8 kts
2026-05-05 07:10 56.74925 60.79829 776 ft 3 kts 359°
2026-05-05 07:10 56.74929 60.79829 776 ft 0 kts 359°